#timestamp,LO_Frequency,Hit,StdDev 
1525939215.1,286046998.1,N
1525939235.8,286046998.6,N
1525939255.7,286047001.0,N
1525939275.5,286047001.2,N
1525939295.4,286046996.7,N
1525939315.2,286046997.2,N
1525939335.0,286046997.7,N
1525939335.9,286046997.7,N
1525939355.8,286046997.1,N
1525939375.6,286046996.6,N
1525939395.4,286046999.3,N
1525939415.3,286046998.2,N
1525939435.1,286047000.8,N
1525939455.9,286046998.8,N
1525939475.7,286046999.0,N
1525939495.5,286046999.5,N
1525939515.4,286046998.7,N
1525939535.2,286046998.3,N
1525939555.0,286046998.6,N
1525939555.9,286046998.6,N
1525939575.8,286046998.5,N
1525939595.6,286047000.1,N
1525939615.5,286047001.8,N
1525939635.3,286047001.9,N
1525939655.1,286047002.3,N
1525939675.9,286047002.5,N
1525939695.7,286047002.6,N
1525939715.6,286047000.0,N
1525939735.4,286047001.0,N
1525939755.2,286047000.3,N
1525939775.1,286047000.0,N
1525939776.0,286047000.0,N
1525939795.8,286047002.7,N
1525939815.7,286047002.4,N
1525939835.5,286047000.2,N
1525939855.3,286047000.9,N
1525939875.2,286047000.4,N
1525939895.9,286047000.1,N
1525939915.7,286047002.3,N
1525939935.6,286047001.8,N
1525939955.4,286047004.0,N
1525939975.3,286047004.2,N
1525939995.1,286047001.9,N
1525939996.0,286047001.9,N
1525940015.8,286047001.3,N
1525940035.7,286047004.3,N
1525940055.5,286047001.5,N
1525940075.3,286047001.4,N
1525940095.2,286047001.7,N
1525940115.0,286047004.1,N
1525940115.9,286047004.1,N
1525940135.8,286047011.9,Y
1525940155.6,286047002.8,P
1525940175.4,286047000.5,N
1525940195.3,286047001.2,N
1525940215.1,286046998.6,N
1525940235.9,286047001.1,N
1525940255.7,286047000.8,N
1525940275.5,286046998.8,N
1525940295.4,286046998.2,N
1525940315.2,286046998.9,N
1525940335.0,286046998.4,N
1525940335.9,286046998.4,N
1525940355.8,286046999.4,N
1525940375.6,286046996.8,N
1525940395.5,286046999.4,N
1525940415.3,286046999.4,N
1525940435.1,286046996.9,N
1525940455.9,286046997.0,N
1525940475.7,286046996.7,N
1525940495.5,286046997.9,N
1525940515.4,286046997.8,N
1525940535.2,286046997.8,N
1525940555.1,286046997.5,N
1525940556.0,286046997.5,N
1525940575.8,286046996.6,N
1525940595.6,286046996.9,N
1525940615.5,286046999.2,N
1525940635.3,286046997.5,N
1525940655.1,286046995.1,N
1525940675.9,286046994.9,N
1525940695.7,286046996.2,N
1525940715.6,286046993.5,Y
1525940735.4,286046994.9,P
1525940755.2,286046997.3,N
1525940775.1,286046994.9,P
1525940776.0,286046994.9,Y
1525940795.8,286047000.8,P
1525940815.7,286047000.5,N
1525940835.5,286047002.3,N
1525940855.3,286047002.5,N
1525940875.2,286047002.7,N
1525940895.0,286047000.2,N
1525940895.9,286047000.2,N
1525940915.8,286046999.0,N
1525940935.6,286047001.1,N
1525940955.4,286046998.5,N
1525940975.3,286046999.1,N
1525940995.1,286046999.0,N
1525941015.8,286046998.5,N
1525941035.7,286047000.8,N
1525941055.5,286046998.9,N
1525941075.4,286046998.2,N
1525941095.2,286047000.9,N
1525941115.0,286046998.3,N
1525941115.9,286046998.3,N
1525941135.8,286047000.9,N
1525941155.6,286046998.5,N
1525941175.4,286046999.0,N
1525941195.3,286046998.9,N
1525941215.1,286046998.9,N
1525941235.9,286046998.9,N
1525941255.7,286046999.3,N
1525941275.5,286046997.0,N
1525941295.4,286046999.2,N
1525941315.2,286046999.0,N
1525941335.0,286046999.6,N
1525941335.9,286046999.6,N
1525941355.8,286046997.3,N
1525941375.6,286046999.6,N
1525941395.5,286046996.7,N
1525941415.3,286046999.6,N
1525941435.1,286046999.6,N
1525941455.9,286046999.4,N
1525941475.7,286046997.0,N
1525941495.5,286046999.2,N
1525941515.4,286046996.8,Y
1525941535.2,286046996.8,P
1525941555.1,286046997.9,N
1525941556.0,286046997.9,N
1525941575.8,286046995.4,Y
1525941595.7,286046998.7,P
1525941615.5,286046999.1,N
1525941635.3,286046998.7,N
1525941655.2,286046998.2,Y
1525941675.0,286047000.7,P
1525941675.9,286047000.7,N
1525941695.8,286047001.1,N
1525941715.6,286047000.7,N
1525941735.4,286046998.7,N
1525941755.3,286047000.4,N
1525941775.1,286047000.5,N
1525941795.8,286047000.2,N
1525941815.7,286047000.0,N
1525941835.5,286047001.0,N
1525941855.4,286047001.1,N
1525941875.2,286046997.0,Y
1525941895.0,286046997.5,P
1525941895.9,286046997.5,N
1525941915.8,286046996.6,N
1525941935.6,286046995.3,Y
1525941955.5,286046998.5,P
1525941975.3,286046999.0,P
1525941995.1,286046998.9,N
1525942015.9,286047000.8,N
1525942035.7,286047000.3,N
1525942055.5,286046999.9,N
1525942075.4,286047000.1,N
1525942095.2,286047002.4,N
1525942115.1,286046999.7,N
1525942116.0,286046999.7,N
1525942135.8,286046999.7,N
1525942155.6,286047001.6,N
1525942175.5,286047003.9,Y
1525942195.3,286047003.9,P
1525942215.2,286047004.0,N
1525942235.9,286047001.7,N
1525942255.7,286047002.3,N
1525942275.6,286047001.3,N
1525942295.4,286047002.6,N
1525942315.2,286046998.3,N
1525942335.1,286046999.2,N
1525942336.0,286046999.2,N
1525942355.8,286046998.5,N
1525942375.7,286047000.1,N
1525942395.5,286047001.6,N
1525942415.3,286047002.1,N
1525942435.2,286047002.4,N
1525942455.0,286047000.9,N
1525942455.9,286047000.9,N
1525942475.8,286047000.4,N
1525942495.6,286047002.5,N
1525942515.4,286047002.0,N
1525942535.3,286047001.5,N
1525942555.1,286047002.0,N
1525942575.8,286047001.6,N
1525942595.7,286047001.9,N
1525942615.5,286047002.5,N
1525942635.4,286047000.0,N
1525942655.2,286047000.0,N
1525942675.0,286047000.1,N
1525942675.9,286047000.1,N
1525942695.8,286047002.7,N
1525942715.6,286047002.3,N
1525942735.4,286047000.5,N
1525942755.3,286047000.3,N
1525942775.1,286047000.0,N
1525942795.9,286047001.8,N
